Location: Lombard
(41.8800°N, 88.0080°W)
Time: 05:40:35
(UTC-05:00)

Vanguard 2 Rocket - Pass Details

Date: 27 February 2024
Orbit: 555 x 3307 km, 32.9° (Epoch: 12 April)

Event Time Altitude Azimuth Distance (km) Brightness Sun altitude
Rises 14:05:50 0° 241° (WSW) 3,936 11.1 32.7°
Reaches altitude 10° 14:08:11 10° 235° (SW) 3,245 11.0 32.4°
Maximum altitude 14:16:17 50° 163° (SSE) 2,228 9.7 31.5°
Drops below altitude 10° 14:30:16 10° 95° (E) 5,446 10.6 29.8°
Sets 14:35:29 0° 91° (E) 6,804 11.0 29.1°
